[[{"header":{"parameterUnit":"m.s-1","parameterCategory":1,"la1":30.2991,"la2":30.254,"lo1":-89.0895,"lo2":-89.0444,"dy":0.0017,"dx":0.0017,"nx":28,"ny":28,"refTime":"2023-05-28T21:00:00:Z","depth":0,"parameterNumber":2,"parameterNumberName":"U-component_of_WINDS"},"data":[0,0,0,0,0,0,0,0,0,0,0,0,0,0,0,0,0,0,0,0,0,0,0,0,0,0,0,0,0,0,0,0,0,0,0,0,0,0,0,0,0,0,0,0,0,0,0,0,0,0,0,0,0,0,0,0,0,0,1.4663,1.4664,0,1.4742,1.4743,1.4744,1.4743,1.4742,1.4741,1.474,1.482,1.4823,1.4826,0,0,0,0,0,0,0,0,0,0,0,0,0,1.4508,1.4511,1.4663,1.4664,1.4665,1.4742,1.4743,1.4744,1.4743,1.4742,1.4741,1.474,1.4819,1.4823,1.4826,0,0,0,0,0,0,0,0,0,0,0,0,0,1.458,1.4512,1.4662,1.4674,1.4675,1.4742,1.4743,1.4745,1.4744,1.4742,1.474,1.4739,1.4818,1.4822,1.4827,1.4887,0,0,1.4841,1.4843,0,0,0,0,0,0,0,0,1.4576,1.4586,1.4671,1.4673,1.4675,1.4731,1.4718,1.4792,1.4744,1.4718,1.474,1.4738,1.4792,1.4798,1.4817,1.4891,1.4894,1.4842,1.4844,1.4846,1.4848,0,0,0,0,0,0,0,1.4571,1.4582,1.4694,1.4672,1.4675,1.4674,1.4682,1.4732,1.4762,1.472,1.472,1.4729,1.4792,1.4812,1.4819,1.4896,1.4841,1.4846,1.4849,1.485,1.5022,1.5024,0,0,0,0,0,0,1.4564,1.4578,1.4692,1.4696,1.4621,1.4678,1.4687,1.4715,1.4762,1.4768,1.4731,1.4729,1.4805,1.4813,1.4821,1.4894,1.4846,1.4851,1.4853,1.502,1.5022,1.5024,0,0,0,0,0,0,1.4561,1.4574,1.4688,1.4637,1.4652,1.4682,1.4713,1.4717,1.4737,1.477,1.4775,1.4745,1.4804,1.4815,1.4871,1.4897,1.4853,1.4857,1.5018,1.5021,1.5023,1.504,0,0,0,0,0,0,1.4556,1.4573,1.4597,1.4638,1.4655,1.4737,1.4715,1.472,1.4745,1.4744,1.4785,1.4791,1.4804,1.4864,1.4875,1.4902,1.4861,1.5016,1.5019,1.5022,1.5037,1.5043,1.5048,0,0,0,0,0,1.4551,1.4598,1.4598,1.4611,1.4685,1.4738,1.4748,1.4762,1.4747,1.4771,1.4792,1.4789,1.4892,1.4869,1.4882,1.4911,1.5014,1.5018,1.5022,1.5035,1.5042,1.5047,0,0,0,0,0,0,1.4558,1.4604,1.4604,1.4666,1.4699,1.4738,1.4768,1.4769,1.4806,1.4803,1.4819,1.4828,1.4884,1.4903,1.4877,1.4971,1.4951,1.4958,1.4956,1.4963,1.4968,1.4962,1.4865,0,0,0,0,0,1.4568,1.4608,1.4645,1.4696,1.4713,1.4738,1.4762,1.477,1.4804,1.4817,1.4843,1.4875,1.4915,1.494,1.4979,1.504,1.5049,1.5067,1.5072,1.5076,1.5081,1.5114,1.5122,1.5037,1.5037,1.5037,0,0,1.4587,1.4616,1.4641,1.4699,1.4725,1.4765,1.4749,1.4793,1.4823,1.4824,1.4877,1.4897,1.4935,1.4993,1.5021,1.5011,1.5106,1.5081,1.5084,1.5087,1.5119,1.5127,1.5134,1.504,1.5039,1.5039,0,0,1.4641,1.4669,1.4714,1.474,1.478,1.4796,1.4807,1.4847,1.486,1.4914,1.4916,1.4951,1.5019,1.5045,1.5067,1.5132,1.513,1.5144,1.5171,1.5202,1.5209,1.5215,1.5236,1.5244,1.5149,1.5149,1.5149,0,1.466,1.4721,1.4737,1.478,1.4805,1.4809,1.4854,1.4878,1.4928,1.4945,1.4934,1.5019,1.5045,1.5109,1.5124,1.5143,1.5155,1.5139,1.5207,1.5213,1.5219,1.5239,1.5248,1.5151,1.515,1.515,1.515,0,1.4741,1.4783,1.4815,1.4863,1.4892,1.4936,1.4957,1.4985,1.499,1.5008,1.5062,1.5093,1.5137,1.5153,1.516,1.5218,1.5211,1.5204,1.5183,1.5228,1.5247,1.5256,1.5152,1.5152,1.5152,1.5151,0,0,1.4802,1.4858,1.487,1.4891,1.4935,1.4967,1.5012,1.5055,1.5077,1.5112,1.5148,1.5205,1.5198,1.5224,1.5233,1.5261,1.5308,1.525,1.5251,1.5258,1.5373,1.5377,1.5386,1.5308,1.5309,1.5311,1.5369,0,1.486,1.4939,1.4954,1.5022,1.506,1.5064,1.5102,1.5133,1.515,1.5185,1.5204,1.5244,1.5232,1.5247,1.5275,1.5296,1.5331,1.5292,1.534,1.5342,1.5329,1.5396,1.5401,1.5455,1.5377,1.5378,1.5379,0,1.4939,1.4975,1.5047,1.5084,1.5101,1.5135,1.5175,1.5209,1.5244,1.5254,1.5282,1.5288,1.5333,1.5312,1.5373,1.5347,1.5367,1.5381,1.5383,1.5387,1.5362,1.54,1.5472,1.548,1.5392,1.5391,1.539,0,1.4974,1.5041,1.5092,1.5111,1.5156,1.518,1.52,1.5233,1.5258,1.5293,1.5309,1.5349,1.5371,1.5401,1.5417,1.5401,1.5477,1.5458,1.5486,1.5485,1.5501,1.5499,1.5575,1.5517,1.5517,1.5516,1.5516,0,1.5037,1.508,1.5108,1.514,1.5188,1.5205,1.5252,1.5272,1.5301,1.5335,1.5341,1.5373,1.5394,1.5429,1.5442,1.549,1.55,1.5509,1.5512,1.5508,1.5506,1.552,1.5516,1.5519,1.5518,1.5518,1.5517,0,1.5084,1.5105,1.5161,1.5199,1.521,1.5244,1.5277,1.5307,1.5324,1.5368,1.5379,1.5406,1.5447,1.5467,1.5518,1.5527,1.5581,1.5582,1.5569,1.557,1.5596,1.5593,1.5683,1.5695,1.563,1.563,1.5631,0,1.5121,1.5155,1.5197,1.5221,1.5241,1.528,1.5305,1.5323,1.5348,1.539,1.5415,1.5456,1.549,1.5556,1.558,1.5619,1.562,1.5649,1.5626,1.562,1.5619,1.5616,1.5619,1.5652,1.5653,1.5654,1.5654,0,1.5186,1.5194,1.5231,1.5271,1.5301,1.5333,1.5364,1.5383,1.5406,1.5435,1.5477,1.5503,1.5556,1.5596,1.5637,1.5657,1.5659,1.5661,1.567,1.5665,1.5656,1.5659,1.5579,1.5659,1.5658,1.5658,1.5658,1.5658,1.5228,1.5257,1.5292,1.5332,1.5357,1.5387,1.5416,1.5437,1.5473,1.5517,1.5525,1.557,1.5603,1.5658,1.5679,1.5714,1.5707,1.572,1.5722,1.5725,1.5725,1.5651,1.5721,1.5721,1.5721,1.5721,1.5721,0,1.5291,1.5313,1.535,1.5394,1.5425,1.5425,1.546,1.5486,1.5525,1.5556,1.5589,1.5637,1.5677,1.5704,1.5744,1.5766,1.5768,1.5776,1.5774,1.5778,1.573,1.5718,1.5774,1.5774,1.5774,1.5774,1.5774,1.5774,1.5328,1.5377,1.5389,1.5451,1.5473,1.5516,1.5536,1.5563,1.5587,1.5641,1.5674,1.5691,1.572,1.5762,1.5798,1.5805,1.5819,1.5827,1.5833,1.5787,1.5782,1.5776,1.5765,1.583,1.583,1.5878,1.5879,1.5879]},{"header":{"parameterUnit":"m.s-1","parameterCategory":1,"la1":30.2991,"la2":30.254,"lo1":-89.0895,"lo2":-89.0444,"dy":0.0017,"dx":0.0017,"nx":28,"ny":28,"refTime":"2023-05-28T21:00:00:Z","depth":0,"parameterNumber":3,"parameterNumberName":"V-component_of_WINDS"},"data":[0,0,0,0,0,0,0,0,0,0,0,0,0,0,0,0,0,0,0,0,0,0,0,0,0,0,0,0,0,0,0,0,0,0,0,0,0,0,0,0,0,0,0,0,0,0,0,0,0,0,0,0,0,0,0,0,0,0,2.637,2.637,0,2.6307,2.6306,2.6305,2.6212,2.621,2.6209,2.6207,2.6143,2.6143,2.6143,0,0,0,0,0,0,0,0,0,0,0,0,0,2.6411,2.6411,2.637,2.637,2.6369,2.6307,2.6306,2.6305,2.6212,2.621,2.6208,2.6206,2.6143,2.6143,2.6143,0,0,0,0,0,0,0,0,0,0,0,0,0,2.6375,2.6411,2.6371,2.6315,2.6309,2.6307,2.6306,2.6305,2.6213,2.621,2.6208,2.6206,2.6143,2.6143,2.6143,2.619,0,0,2.6142,2.6142,0,0,0,0,0,0,0,0,2.6378,2.6374,2.6324,2.6319,2.6312,2.6265,2.6297,2.6267,2.6213,2.625,2.6207,2.6204,2.6186,2.6182,2.6175,2.6187,2.6184,2.6142,2.6142,2.6141,2.6141,0,0,0,0,0,0,0,2.638,2.6376,2.6345,2.6323,2.6316,2.6293,2.6285,2.6291,2.6232,2.6246,2.6239,2.6233,2.6182,2.6176,2.6173,2.6183,2.6142,2.6141,2.6141,2.6141,2.6229,2.6231,0,0,0,0,0,0,2.6391,2.6379,2.6347,2.6343,2.634,2.6295,2.6286,2.6283,2.6232,2.6222,2.6235,2.6229,2.6177,2.6173,2.617,2.6221,2.6141,2.6141,2.6141,2.6226,2.6229,2.6232,0,0,0,0,0,0,2.6392,2.6389,2.635,2.6359,2.6352,2.6296,2.6294,2.6283,2.6276,2.6223,2.6213,2.6239,2.6175,2.6171,2.6185,2.6217,2.6141,2.6141,2.6223,2.6227,2.6231,2.6324,0,0,0,0,0,0,2.6394,2.639,2.6407,2.636,2.6352,2.6366,2.6296,2.6283,2.6276,2.6267,2.6225,2.6215,2.6173,2.6186,2.6185,2.6216,2.6141,2.622,2.6225,2.623,2.6317,2.633,2.6341,0,0,0,0,0,2.6395,2.6436,2.6409,2.6405,2.6373,2.6368,2.6364,2.6314,2.6279,2.6296,2.6262,2.6216,2.6215,2.6189,2.6186,2.6217,2.6218,2.6224,2.6229,2.6312,2.6328,2.6341,0,0,0,0,0,0,2.6489,2.6429,2.6398,2.6425,2.6402,2.6353,2.6372,2.6332,2.6319,2.6312,2.6251,2.6242,2.6264,2.6242,2.6215,2.626,2.6209,2.6215,2.6273,2.6287,2.6299,2.6303,2.614,0,0,0,0,0,2.6513,2.6514,2.6462,2.6491,2.6481,2.6429,2.6425,2.6389,2.6363,2.6353,2.632,2.6297,2.6291,2.6288,2.628,2.6314,2.6303,2.6334,2.6346,2.6356,2.6361,2.6376,2.6389,2.6251,2.6251,2.625,0,0,2.6562,2.653,2.6534,2.6509,2.6487,2.6489,2.6421,2.6427,2.6428,2.6354,2.6365,2.634,2.631,2.6335,2.6344,2.6317,2.6397,2.6363,2.6372,2.6371,2.6383,2.6397,2.6408,2.6254,2.6254,2.6253,0,0,2.6652,2.6629,2.6649,2.6629,2.6596,2.6561,2.6567,2.6523,2.6503,2.6513,2.6458,2.6458,2.6449,2.6429,2.6419,2.6501,2.6459,2.65,2.6561,2.6577,2.6588,2.6597,2.6625,2.6636,2.6506,2.6506,2.6506,0,2.6718,2.6718,2.6665,2.6674,2.6664,2.6597,2.6617,2.66,2.6567,2.6561,2.6532,2.6519,2.6494,2.6512,2.6532,2.6526,2.6529,2.6504,2.659,2.6599,2.6607,2.6633,2.6644,2.6511,2.6511,2.651,2.651,0,2.6799,2.6801,2.6822,2.6791,2.6783,2.6798,2.6747,2.6746,2.671,2.6678,2.6689,2.6657,2.664,2.6642,2.6608,2.6655,2.6639,2.6602,2.6549,2.6626,2.665,2.6659,2.6519,2.6517,2.6515,2.6514,0,0,2.6946,2.6885,2.6894,2.6878,2.6838,2.6838,2.685,2.6833,2.6832,2.6812,2.6819,2.6813,2.6777,2.6765,2.6728,2.6741,2.6807,2.6701,2.6699,2.6721,2.6855,2.6883,2.6896,2.6779,2.6781,2.6782,2.6857,0,2.7027,2.7043,2.6995,2.7023,2.7023,2.6959,2.6969,2.6945,2.6916,2.6911,2.6879,2.6875,2.6828,2.682,2.6831,2.6797,2.6833,2.6791,2.6784,2.6785,2.6792,2.6908,2.6938,2.7011,2.6866,2.6868,2.6869,0,2.7124,2.7108,2.7136,2.7092,2.7091,2.71,2.7081,2.7078,2.7049,2.7027,2.7013,2.6969,2.6977,2.6928,2.6937,2.6909,2.6904,2.6887,2.6888,2.6885,2.6831,2.6907,2.7033,2.7044,2.6883,2.6882,2.6881,0,2.7227,2.7212,2.7226,2.7215,2.7166,2.7174,2.7154,2.7123,2.7115,2.7098,2.7093,2.7077,2.7068,2.7057,2.701,2.6979,2.7024,2.6972,2.7005,2.7006,2.7016,2.7016,2.7142,2.7016,2.7015,2.7015,2.7015,0,2.7321,2.734,2.7271,2.728,2.7299,2.7244,2.7265,2.7238,2.7211,2.7213,2.7158,2.7161,2.71,2.7096,2.706,2.7072,2.7068,2.705,2.704,2.7054,2.7056,2.7049,2.7042,2.7018,2.7017,2.7017,2.7016,0,2.7438,2.7393,2.7404,2.7357,2.7345,2.7361,2.732,2.7326,2.7293,2.7296,2.7294,2.7242,2.7234,2.7187,2.7169,2.7145,2.7169,2.715,2.7179,2.7172,2.7207,2.7204,2.7332,2.7345,2.7212,2.7213,2.7214,0,2.7501,2.7514,2.7468,2.7465,2.7447,2.7444,2.7436,2.7382,2.7376,2.7344,2.7354,2.7342,2.7329,2.732,2.7281,2.7266,2.7245,2.7291,2.7243,2.7256,2.7244,2.7243,2.7244,2.7301,2.7303,2.7304,2.7305,0,2.7617,2.7594,2.7584,2.7568,2.756,2.7544,2.7524,2.7525,2.7466,2.7462,2.7453,2.7444,2.7425,2.7413,2.7392,2.737,2.7328,2.7321,2.7327,2.7342,2.7357,2.7348,2.7206,2.7318,2.7317,2.7316,2.7315,2.7315,2.7707,2.7716,2.7684,2.7675,2.7655,2.7638,2.7641,2.7608,2.76,2.7581,2.755,2.7545,2.7515,2.7482,2.7464,2.7459,2.7435,2.7445,2.7447,2.745,2.7457,2.7359,2.7456,2.7455,2.7455,2.7454,2.7454,0,2.7819,2.7796,2.7788,2.7763,2.7756,2.7717,2.7693,2.769,2.7687,2.7662,2.7651,2.7641,2.7629,2.7589,2.7573,2.7577,2.7557,2.7574,2.7573,2.7568,2.7481,2.7476,2.759,2.759,2.759,2.759,2.759,2.759,2.7876,2.7887,2.7861,2.7861,2.7837,2.7833,2.7823,2.7806,2.7786,2.7778,2.7768,2.7741,2.771,2.7691,2.7679,2.7667,2.7663,2.7687,2.7669,2.7588,2.7574,2.7562,2.7557,2.7687,2.7687,2.7756,2.7757,2.7757]}]]